Tracking 31027 objects as of 19-Jul-2025
HD Live streaming from Space Station
objects crossing your sky now

ONEWEB-0045

Track ONEWEB-0045 now!
10-day predictions
ONEWEB-0045 is classified as:


NORAD ID: 45151
Int'l Code: 2020-008W
Perigee: 1,223.3 km
Apogee: 1,226.3 km
Inclination: 87.9 °
Period: 109.8 minutes
Semi major axis: 7595 km
RCS: Unknown
Launch date: February 6, 2020
Source: United Kingdom (UK)
Launch site: TYURATAM MISSILE AND SPACE COMPLEX (TTMTR)
Your satellite tracking list
STARLINK-31611
Track 1 satellite(s)




NASA's NSSDC Master Catalog

Two Line Element Set (TLE):
1 45151U 20008W   25199.44156762  .00000516  00000-0  14206-2 0  9994
2 45151  87.8824  87.5556 0001948  79.7290 280.4058 13.11419719266667
Source of the keplerian elements: AFSPC